{"data":{"norad_id":58373,"intl_designator":"2023-177Y","name":"STARLINK-30852","alt_names":[],"object_type":"PAYLOAD","status":"ACTIVE","operator":null,"country":"US","launch_date":"2023-11-18","launch_site_code":"AFETR","launch_vehicle":null,"mission":null,"orbit_class":"UNKNOWN","rcs_meters":null,"size_class":null,"mass_kg":null,"dimensions":null,"purposes":["comms"],"wikipedia_slug":null,"has_3d_model":false,"image_url":null,"decayed_at":null,"tle_current":{"epoch":"2026-09-20T21:27:51.784704Z","epoch_age_seconds":109624,"freshness":"FRESH","line1":"1 58373U 23177Y   26263.89434936 -.00000435  00000+0 -62929-5 0  9997","line2":"2 58373  43.0033 327.9712 0001016 273.7452  86.3283 15.27577066158088","mean_motion":15.27577066,"eccentricity":0.0001016,"inclination_deg":43.0033,"raan_deg":327.9712,"arg_perigee_deg":273.7452,"mean_anomaly_deg":86.3283,"bstar":-6.2929e-6,"rev_number":15808,"period_min":94.26692977073,"perigee_km":482.36078410525,"apogee_km":483.75497890518,"semimajor_km":6861.1948815052,"source":"CELESTRAK","updated_at":"2026-09-21T09:00:33.864332Z"}}}